Time,TemperatureF,DewpointF,PressureIn,WindDirection,WindDirectionDegrees,WindSpeedMPH,WindSpeedGustMPH,Humidity,HourlyPrecipIn,Conditions,Clouds,dailyrainin,SolarRadiationWatts/m^2,SoftwareType,DateUTC
2013-08-24 00:02:00,75.5,67.4,30.00,ENE,69,0.0,0.0,76,0.00,,,0.00,0.0,WeatherDisplay:10.37,2013-08-23 22:02:00,
2013-08-24 00:07:00,75.5,67.4,30.00,ENE,69,0.0,0.0,76,0.00,,,0.00,0.0,WeatherDisplay:10.37,2013-08-23 22:07:00,
2013-08-24 00:12:00,75.4,67.3,30.00,ENE,69,0.0,0.0,76,0.00,,,0.00,0.0,WeatherDisplay:10.37,2013-08-23 22:12:00,
2013-08-24 00:17:00,75.3,67.6,30.00,ENE,69,0.0,0.0,77,0.00,,,0.00,0.0,WeatherDisplay:10.37,2013-08-23 22:17:00,
2013-08-24 00:22:00,75.2,67.5,30.00,ENE,69,0.0,0.0,77,0.00,,,0.00,0.0,WeatherDisplay:10.37,2013-08-23 22:22:00,
2013-08-24 00:27:00,75.1,67.4,30.00,ENE,69,0.0,0.0,77,0.00,,,0.00,0.0,WeatherDisplay:10.37,2013-08-23 22:27:00,
2013-08-24 00:32:00,75.1,67.4,30.00,ENE,69,0.0,0.0,77,0.00,,,0.00,0.0,WeatherDisplay:10.37,2013-08-23 22:32:00,
2013-08-24 00:37:00,75.1,67.8,30.00,ENE,69,0.0,0.0,78,0.00,,,0.00,0.0,WeatherDisplay:10.37,2013-08-23 22:37:00,
2013-08-24 00:42:00,75.0,67.7,30.00,ENE,69,0.0,0.0,78,0.00,,,0.00,0.0,WeatherDisplay:10.37,2013-08-23 22:42:00,
2013-08-24 00:47:00,74.9,67.6,30.00,ENE,69,0.0,0.0,78,0.00,,,0.00,0.0,WeatherDisplay:10.37,2013-08-23 22:47:00,
2013-08-24 00:52:00,74.9,67.6,30.00,ENE,69,0.0,0.0,78,0.00,,,0.00,0.0,WeatherDisplay:10.37,2013-08-23 22:52:00,
2013-08-24 00:57:00,74.8,67.8,30.00,ENE,69,0.0,0.0,79,0.00,,,0.00,0.0,WeatherDisplay:10.37,2013-08-23 22:57:00,
2013-08-24 01:02:00,74.7,67.8,30.00,ENE,69,0.0,0.0,79,0.00,,,0.00,0.0,WeatherDisplay:10.37,2013-08-23 23:02:00,
2013-08-24 01:07:00,74.6,67.7,29.99,ENE,69,0.0,0.0,79,0.00,,,0.00,0.0,WeatherDisplay:10.37,2013-08-23 23:07:00,
2013-08-24 01:12:00,74.6,68.0,30.00,ENE,69,0.0,0.0,80,0.00,,,0.00,0.0,WeatherDisplay:10.37,2013-08-23 23:12:00,
2013-08-24 01:17:00,74.6,68.0,29.99,ENE,69,0.0,0.0,80,0.00,,,0.00,0.0,WeatherDisplay:10.37,2013-08-23 23:17:00,
2013-08-24 01:22:00,74.5,67.9,29.99,ENE,69,0.0,0.0,80,0.00,,,0.00,0.0,WeatherDisplay:10.37,2013-08-23 23:22:00,
2013-08-24 01:27:00,74.5,67.9,29.99,ENE,69,0.0,0.0,80,0.00,,,0.00,0.0,WeatherDisplay:10.37,2013-08-23 23:27:00,
2013-08-24 01:32:00,74.5,67.9,29.99,ENE,69,0.0,0.0,80,0.00,,,0.00,0.0,WeatherDisplay:10.37,2013-08-23 23:32:00,
2013-08-24 01:37:00,74.4,67.8,29.99,ENE,69,0.0,0.0,80,0.00,,,0.00,0.0,WeatherDisplay:10.37,2013-08-23 23:37:00,
2013-08-24 01:42:00,74.3,67.7,29.99,ENE,69,0.0,0.0,80,0.00,,,0.00,0.0,WeatherDisplay:10.37,2013-08-23 23:42:00,
2013-08-24 01:47:00,74.2,67.6,29.99,ENE,63,2.3,2.3,80,0.00,,,0.00,0.0,WeatherDisplay:10.37,2013-08-23 23:47:00,
2013-08-24 01:52:00,74.2,67.6,29.99,NE,42,2.3,2.3,80,0.00,,,0.00,0.0,WeatherDisplay:10.37,2013-08-23 23:52:00,
2013-08-24 01:58:00,74.1,67.5,29.99,NE,38,3.5,3.5,80,0.00,,,0.00,0.0,WeatherDisplay:10.37,2013-08-23 23:58:00,
2013-08-24 02:03:00,74.1,67.5,29.99,NE,44,3.5,3.5,80,0.00,,,0.00,0.0,WeatherDisplay:10.37,2013-08-24 00:03:00,
2013-08-24 02:08:00,74.0,67.4,29.99,NE,36,2.3,2.3,80,0.00,,,0.00,0.0,WeatherDisplay:10.37,2013-08-24 00:08:00,
2013-08-24 02:13:00,74.1,67.9,29.99,NNE,33,2.3,2.3,81,0.00,,,0.00,0.0,WeatherDisplay:10.37,2013-08-24 00:13:00,
2013-08-24 02:18:00,74.1,67.9,29.99,NNE,33,2.3,2.3,81,0.00,,,0.00,0.0,WeatherDisplay:10.37,2013-08-24 00:18:00,
2013-08-24 02:23:00,74.1,67.9,29.99,NNE,33,0.0,0.0,81,0.00,,,0.00,0.0,WeatherDisplay:10.37,2013-08-24 00:23:00,
2013-08-24 02:28:00,74.1,67.9,29.99,NNE,33,1.2,1.2,81,0.00,,,0.00,0.0,WeatherDisplay:10.37,2013-08-24 00:28:00,
2013-08-24 02:33:00,74.1,67.9,29.99,NNE,33,1.2,1.2,81,0.00,,,0.00,0.0,WeatherDisplay:10.37,2013-08-24 00:33:00,
2013-08-24 02:38:00,74.1,67.9,29.99,NNE,33,0.0,0.0,81,0.00,,,0.00,0.0,WeatherDisplay:10.37,2013-08-24 00:38:00,
2013-08-24 02:43:00,74.0,67.4,29.99,NE,45,0.0,0.0,80,0.00,,,0.00,0.0,WeatherDisplay:10.37,2013-08-24 00:43:00,
2013-08-24 02:48:00,73.8,67.6,29.99,NNE,32,3.5,3.5,81,0.00,,,0.00,0.0,WeatherDisplay:10.37,2013-08-24 00:48:00,
2013-08-24 02:53:00,74.0,67.8,29.99,NNE,32,0.0,0.0,81,0.00,,,0.00,0.0,WeatherDisplay:10.37,2013-08-24 00:53:00,
2013-08-24 02:58:00,73.8,67.6,29.99,NNE,32,1.2,1.2,81,0.00,,,0.00,0.0,WeatherDisplay:10.37,2013-08-24 00:58:00,
2013-08-24 03:03:00,73.5,67.3,29.99,NE,42,1.2,1.2,81,0.00,,,0.00,0.0,WeatherDisplay:10.37,2013-08-24 01:03:00,
2013-08-24 03:08:00,73.4,67.2,29.99,NE,42,1.2,1.2,81,0.00,,,0.00,0.0,WeatherDisplay:10.37,2013-08-24 01:08:00,
2013-08-24 03:13:00,73.3,67.1,29.99,NE,42,1.2,1.2,81,0.00,,,0.00,0.0,WeatherDisplay:10.37,2013-08-24 01:13:00,
2013-08-24 03:18:00,73.3,67.1,29.99,NE,34,1.2,1.2,81,0.00,,,0.00,0.0,WeatherDisplay:10.37,2013-08-24 01:18:00,
2013-08-24 03:23:00,73.3,67.1,29.99,NNE,18,1.2,1.2,81,0.00,,,0.00,0.0,WeatherDisplay:10.37,2013-08-24 01:23:00,
2013-08-24 03:28:00,73.1,66.6,29.99,WNW,289,2.0,2.0,80,0.00,,,0.00,0.0,WeatherDisplay:10.37,2013-08-24 01:28:00,
2013-08-24 03:33:00,73.0,66.5,29.99,SSE,153,2.0,2.0,80,0.00,,,0.00,0.0,WeatherDisplay:10.37,2013-08-24 01:33:00,
2013-08-24 03:38:00,73.0,66.5,29.99,West,280,2.3,2.3,80,0.00,,,0.00,0.0,WeatherDisplay:10.37,2013-08-24 01:38:00,
2013-08-24 03:43:00,73.2,66.7,29.99,SSW,205,0.0,0.0,80,0.00,,,0.00,0.0,WeatherDisplay:10.37,2013-08-24 01:43:00,
2013-08-24 03:48:00,73.4,66.9,29.98,SW,217,1.2,1.2,80,0.00,,,0.00,0.0,WeatherDisplay:10.37,2013-08-24 01:48:00,
2013-08-24 03:53:00,73.3,66.8,29.98,SW,228,1.2,1.2,80,0.00,,,0.00,0.0,WeatherDisplay:10.37,2013-08-24 01:53:00,
2013-08-24 03:58:00,73.2,67.0,29.98,SE,142,1.2,1.2,81,0.00,,,0.00,0.0,WeatherDisplay:10.37,2013-08-24 01:58:00,
2013-08-24 04:03:00,73.2,67.0,29.98,North,355,1.0,1.0,81,0.00,,,0.00,0.0,WeatherDisplay:10.37,2013-08-24 02:03:00,
2013-08-24 04:08:00,73.1,66.9,29.98,NE,53,1.2,1.2,81,0.00,,,0.00,0.0,WeatherDisplay:10.37,2013-08-24 02:08:00,
2013-08-24 04:13:00,73.2,67.0,29.98,SW,225,1.2,1.2,81,0.00,,,0.00,0.0,WeatherDisplay:10.37,2013-08-24 02:13:00,
2013-08-24 04:18:00,73.3,67.5,29.98,NE,34,2.3,2.3,82,0.00,,,0.00,0.0,WeatherDisplay:10.37,2013-08-24 02:18:00,
2013-08-24 04:23:00,73.4,67.6,29.98,SSW,192,2.3,2.3,82,0.00,,,0.00,0.0,WeatherDisplay:10.37,2013-08-24 02:23:00,
2013-08-24 04:28:00,73.5,67.7,29.98,WSW,247,1.2,1.2,82,0.00,,,0.00,0.0,WeatherDisplay:10.37,2013-08-24 02:28:00,
2013-08-24 04:33:00,73.6,68.1,29.98,SSW,198,1.2,0.0,83,0.00,,,0.00,0.0,WeatherDisplay:10.37,2013-08-24 02:33:00,
2013-08-24 04:38:00,73.5,68.0,29.98,SSW,208,1.2,0.0,83,0.00,,,0.00,0.0,WeatherDisplay:10.37,2013-08-24 02:38:00,
2013-08-24 04:43:00,73.5,68.0,29.98,WNW,296,1.2,1.2,83,0.00,,,0.00,0.0,WeatherDisplay:10.37,2013-08-24 02:43:00,
2013-08-24 04:48:00,73.3,67.8,29.98,WNW,296,1.0,0.0,83,0.00,,,0.00,0.0,WeatherDisplay:10.37,2013-08-24 02:48:00,
2013-08-24 04:53:00,73.2,67.7,29.97,WSW,246,2.3,2.3,83,0.00,,,0.00,0.0,WeatherDisplay:10.37,2013-08-24 02:53:00,
2013-08-24 04:58:00,73.0,67.5,29.97,WNW,288,1.2,1.2,83,0.00,,,0.00,0.0,WeatherDisplay:10.37,2013-08-24 02:58:00,
2013-08-24 05:03:00,72.8,67.7,29.97,WSW,240,2.3,2.3,84,0.00,,,0.00,0.0,WeatherDisplay:10.37,2013-08-24 03:03:00,
2013-08-24 05:08:00,72.6,67.5,29.97,West,279,2.3,2.3,84,0.00,,,0.00,0.0,WeatherDisplay:10.37,2013-08-24 03:08:00,
2013-08-24 05:13:00,72.3,67.2,29.97,SW,232,2.3,2.3,84,0.00,,,0.00,0.0,WeatherDisplay:10.37,2013-08-24 03:13:00,
2013-08-24 05:18:00,72.2,67.1,29.97,NW,313,1.2,1.2,84,0.00,,,0.00,0.0,WeatherDisplay:10.37,2013-08-24 03:18:00,
2013-08-24 05:23:00,72.1,67.3,29.97,WSW,242,2.3,2.3,85,0.00,,,0.00,0.0,WeatherDisplay:10.37,2013-08-24 03:23:00,
2013-08-24 05:28:00,72.1,67.3,29.97,WSW,240,2.0,2.0,85,0.00,,,0.00,0.0,WeatherDisplay:10.37,2013-08-24 03:28:00,
2013-08-24 05:33:00,72.0,67.2,29.97,SSE,159,3.5,3.5,85,0.00,,,0.00,0.0,WeatherDisplay:10.37,2013-08-24 03:33:00,
2013-08-24 05:38:00,71.9,67.1,29.97,East,85,2.3,2.3,85,0.00,,,0.00,0.0,WeatherDisplay:10.37,2013-08-24 03:38:00,
2013-08-24 05:43:00,71.9,67.1,29.97,NW,318,1.2,1.2,85,0.00,,,0.00,0.0,WeatherDisplay:10.37,2013-08-24 03:43:00,
2013-08-24 05:48:00,71.8,67.0,29.97,SW,232,2.3,2.3,85,0.00,,,0.00,0.0,WeatherDisplay:10.37,2013-08-24 03:48:00,
2013-08-24 05:53:00,71.9,67.1,29.97,ESE,123,3.5,3.5,85,0.00,,,0.00,0.0,WeatherDisplay:10.37,2013-08-24 03:53:00,
2013-08-24 05:58:00,71.9,67.1,29.97,SE,146,2.0,2.0,85,0.00,,,0.00,0.0,WeatherDisplay:10.37,2013-08-24 03:58:00,
2013-08-24 06:01:00,71.9,67.1,29.97,SSE,157,2.3,2.3,85,0.00,,,0.00,0.0,WeatherDisplay:10.37,2013-08-24 04:01:00,
2013-08-24 06:06:00,71.9,67.1,29.97,South,188,2.3,2.3,85,0.00,,,0.00,0.0,WeatherDisplay:10.37,2013-08-24 04:06:00,
2013-08-24 06:11:00,71.8,67.0,29.97,SSW,211,3.5,3.5,85,0.00,,,0.00,0.0,WeatherDisplay:10.37,2013-08-24 04:11:00,
2013-08-24 06:16:00,71.8,67.0,29.97,SW,219,2.3,2.3,85,0.00,,,0.00,0.0,WeatherDisplay:10.37,2013-08-24 04:16:00,
2013-08-24 06:21:00,71.7,66.9,29.97,SW,223,1.2,1.2,85,0.00,,,0.00,0.0,WeatherDisplay:10.37,2013-08-24 04:21:00,
2013-08-24 06:26:00,71.7,66.9,29.97,South,190,1.2,1.2,85,0.00,BKN,,0.00,5.0,WeatherDisplay:10.37,2013-08-24 04:26:00,
2013-08-24 06:31:00,71.7,66.9,29.97,SSW,213,1.2,1.2,85,0.00,BKN,,0.00,9.0,WeatherDisplay:10.37,2013-08-24 04:31:00,
2013-08-24 06:36:00,71.7,66.9,29.97,SW,226,2.3,2.3,85,0.00,BKN,,0.00,14.0,WeatherDisplay:10.37,2013-08-24 04:36:00,
2013-08-24 06:41:00,71.7,66.9,29.97,NW,323,1.2,1.2,85,0.00,BKN,,0.00,19.0,WeatherDisplay:10.37,2013-08-24 04:41:00,
2013-08-24 06:46:00,71.8,67.0,29.97,SE,141,1.2,1.2,85,0.00,BKN,,0.00,26.0,WeatherDisplay:10.37,2013-08-24 04:46:00,
2013-08-24 06:51:00,71.9,67.1,29.97,West,281,2.3,2.3,85,0.00,SCT,,0.00,37.0,WeatherDisplay:10.37,2013-08-24 04:51:00,
2013-08-24 06:56:00,72.0,67.2,29.97,SW,228,2.3,2.3,85,0.00,SCT,,0.00,44.0,WeatherDisplay:10.37,2013-08-24 04:56:00,
2013-08-24 07:01:00,72.2,67.4,29.97,WSW,254,1.2,1.2,85,0.00,SCT,,0.00,56.0,WeatherDisplay:10.37,2013-08-24 05:01:00,
2013-08-24 07:06:00,72.3,67.5,29.97,WSW,254,1.2,1.2,85,0.00,SCT,,0.00,69.0,WeatherDisplay:10.37,2013-08-24 05:06:00,
2013-08-24 07:11:00,72.4,67.6,29.97,WNW,302,1.2,1.2,85,0.00,SCT,,0.00,83.0,WeatherDisplay:10.37,2013-08-24 05:11:00,
2013-08-24 07:16:00,72.5,67.7,29.97,South,186,2.3,2.3,85,0.00,FEW,,0.00,98.0,WeatherDisplay:10.37,2013-08-24 05:16:00,
2013-08-24 07:21:00,72.6,67.5,29.97,SSE,167,2.3,2.3,84,0.00,FEW,,0.00,113.0,WeatherDisplay:10.37,2013-08-24 05:21:00,
2013-08-24 07:26:00,72.9,67.8,29.97,West,269,1.2,1.2,84,0.00,FEW,,0.00,123.0,WeatherDisplay:10.37,2013-08-24 05:26:00,
2013-08-24 07:31:00,73.1,68.0,29.97,West,268,1.2,1.2,84,0.00,FEW,,0.00,135.0,WeatherDisplay:10.37,2013-08-24 05:31:00,
2013-08-24 07:36:00,73.4,67.9,29.97,SSW,194,1.2,1.2,83,0.00,FEW,,0.00,146.0,WeatherDisplay:10.37,2013-08-24 05:36:00,
2013-08-24 07:41:00,73.7,68.2,29.97,SSW,212,1.2,1.2,83,0.00,FEW,,0.00,155.0,WeatherDisplay:10.37,2013-08-24 05:41:00,
2013-08-24 07:46:00,74.1,68.6,29.97,SW,235,2.3,2.3,83,0.00,FEW,,0.00,174.0,WeatherDisplay:10.37,2013-08-24 05:46:00,
2013-08-24 07:52:00,74.5,68.6,29.97,East,98,1.2,1.2,82,0.00,FEW,,0.00,195.0,WeatherDisplay:10.37,2013-08-24 05:52:00,
2013-08-24 07:57:00,74.9,68.7,29.97,SE,133,2.0,2.0,81,0.00,FEW,,0.00,207.0,WeatherDisplay:10.37,2013-08-24 05:57:00,
2013-08-24 08:02:00,75.0,68.4,29.97,ENE,72,4.6,4.6,80,0.00,FEW,,0.00,223.0,WeatherDisplay:10.37,2013-08-24 06:02:00,
2013-08-24 08:07:00,75.1,68.5,29.98,East,86,3.5,3.5,80,0.00,FEW,,0.00,239.0,WeatherDisplay:10.37,2013-08-24 06:07:00,
2013-08-24 08:12:00,75.1,68.5,29.98,ESE,121,4.6,4.6,80,0.00,FEW,,0.00,250.0,WeatherDisplay:10.37,2013-08-24 06:12:00,
2013-08-24 08:17:00,75.3,68.7,29.98,ESE,117,5.8,5.8,80,0.00,FEW,,0.00,264.0,WeatherDisplay:10.37,2013-08-24 06:17:00,
2013-08-24 08:22:00,75.4,68.8,29.98,NE,44,3.5,3.5,80,0.00,FEW,,0.00,271.0,WeatherDisplay:10.37,2013-08-24 06:22:00,
2013-08-24 08:27:00,75.4,68.4,29.98,East,92,4.6,4.6,79,0.00,FEW,,0.00,288.0,WeatherDisplay:10.37,2013-08-24 06:27:00,
2013-08-24 08:32:00,75.5,68.5,29.98,NE,35,4.6,4.6,79,0.00,FEW,,0.00,313.0,WeatherDisplay:10.37,2013-08-24 06:32:00,
2013-08-24 08:37:00,75.7,68.7,29.98,ESE,109,3.5,3.5,79,0.00,FEW,,0.00,322.0,WeatherDisplay:10.37,2013-08-24 06:37:00,
2013-08-24 08:42:00,76.1,69.1,29.98,East,85,2.3,2.3,79,0.00,FEW,,0.00,345.0,WeatherDisplay:10.37,2013-08-24 06:42:00,
2013-08-24 08:47:00,76.5,69.1,29.98,ESE,121,3.0,3.0,78,0.00,FEW,,0.00,383.0,WeatherDisplay:10.37,2013-08-24 06:47:00,
2013-08-24 08:52:00,76.9,69.1,29.98,ESE,106,1.2,1.2,77,0.00,FEW,,0.00,387.0,WeatherDisplay:10.37,2013-08-24 06:52:00,
2013-08-24 08:57:00,77.2,69.4,29.98,SSE,150,0.0,0.0,77,0.00,FEW,,0.00,410.0,WeatherDisplay:10.37,2013-08-24 06:57:00,
2013-08-24 09:02:00,77.8,69.6,29.98,SSE,150,0.0,0.0,76,0.00,FEW,,0.00,403.0,WeatherDisplay:10.37,2013-08-24 07:02:00,
2013-08-24 09:07:00,78.4,70.2,29.98,SSE,150,0.0,0.0,76,0.00,FEW,,0.00,425.0,WeatherDisplay:10.37,2013-08-24 07:07:00,
2013-08-24 09:12:00,78.5,69.5,29.99,SE,137,1.2,0.0,74,0.00,FEW,,0.00,267.0,WeatherDisplay:10.37,2013-08-24 07:12:00,
2013-08-24 09:17:00,78.3,68.9,29.99,SW,234,5.8,5.8,73,0.00,FEW,,0.00,464.0,WeatherDisplay:10.37,2013-08-24 07:17:00,
2013-08-24 09:22:00,77.6,68.7,29.99,SSW,210,3.5,3.5,74,0.00,FEW,,0.00,515.0,WeatherDisplay:10.37,2013-08-24 07:22:00,
2013-08-24 09:27:00,77.4,68.9,29.98,West,280,4.6,4.6,75,0.00,FEW,,0.00,492.0,WeatherDisplay:10.37,2013-08-24 07:27:00,
2013-08-24 09:32:00,77.4,68.9,29.99,SW,231,3.5,3.5,75,0.00,FEW,,0.00,503.0,WeatherDisplay:10.37,2013-08-24 07:32:00,
2013-08-24 09:37:00,77.4,68.9,29.99,SW,214,8.1,8.1,75,0.00,BKN,,0.00,503.0,WeatherDisplay:10.37,2013-08-24 07:37:00,
2013-08-24 09:42:00,76.9,68.4,29.99,SW,229,6.9,6.9,75,0.00,BKN,,0.00,501.0,WeatherDisplay:10.37,2013-08-24 07:42:00,
2013-08-24 09:47:00,77.3,68.8,29.99,SW,234,6.0,6.0,75,0.00,BKN,,0.00,531.0,WeatherDisplay:10.37,2013-08-24 07:47:00,
2013-08-24 09:52:00,77.3,68.8,29.99,SW,224,7.0,7.0,75,0.00,BKN,,0.00,552.0,WeatherDisplay:10.37,2013-08-24 07:52:00,
2013-08-24 09:57:00,77.6,69.0,29.99,WNW,292,6.9,6.9,75,0.00,BKN,,0.00,552.0,WeatherDisplay:10.37,2013-08-24 07:57:00,
2013-08-24 10:02:00,77.8,69.2,29.99,WSW,248,5.8,5.8,75,0.00,BKN,,0.00,568.0,WeatherDisplay:10.37,2013-08-24 08:02:00,
2013-08-24 10:07:00,77.7,69.1,29.99,WNW,293,6.9,6.9,75,0.00,BKN,,0.00,577.0,WeatherDisplay:10.37,2013-08-24 08:07:00,
2013-08-24 10:12:00,77.5,68.6,29.99,WSW,243,8.1,8.1,74,0.00,BKN,,0.00,591.0,WeatherDisplay:10.37,2013-08-24 08:12:00,
2013-08-24 10:17:00,77.7,68.7,29.99,WSW,238,9.2,9.2,74,0.00,BKN,,0.00,589.0,WeatherDisplay:10.37,2013-08-24 08:17:00,
2013-08-24 10:22:00,77.5,68.9,29.99,SW,230,11.0,11.0,75,0.00,BKN,,0.00,610.0,WeatherDisplay:10.37,2013-08-24 08:22:00,
2013-08-24 10:27:00,77.5,68.9,29.99,SW,220,8.0,8.0,75,0.00,BKN,,0.00,612.0,WeatherDisplay:10.37,2013-08-24 08:27:00,
2013-08-24 10:32:00,77.8,68.8,29.99,SW,227,8.1,8.1,74,0.00,BKN,,0.00,628.0,WeatherDisplay:10.37,2013-08-24 08:32:00,
2013-08-24 10:37:00,77.9,69.3,29.99,WNW,297,8.1,8.1,75,0.00,BKN,,0.00,638.0,WeatherDisplay:10.37,2013-08-24 08:37:00,
2013-08-24 10:42:00,78.0,69.4,29.99,North,9,5.8,5.8,75,0.00,BKN,,0.00,643.0,WeatherDisplay:10.37,2013-08-24 08:42:00,
2013-08-24 10:47:00,78.2,69.2,29.99,SW,217,10.4,10.4,74,0.00,BKN,,0.00,654.0,WeatherDisplay:10.37,2013-08-24 08:47:00,
2013-08-24 10:52:00,77.6,69.0,29.99,WSW,242,10.4,10.4,75,0.00,BKN,,0.00,666.0,WeatherDisplay:10.37,2013-08-24 08:52:00,
2013-08-24 10:57:00,77.7,69.5,29.99,ESE,107,11.5,11.5,76,0.00,BKN,,0.00,671.0,WeatherDisplay:10.37,2013-08-24 08:57:00,
2013-08-24 11:02:00,77.8,69.6,29.99,SSW,203,9.2,9.2,76,0.00,BKN,,0.00,679.0,WeatherDisplay:10.37,2013-08-24 09:02:00,
2013-08-24 11:07:00,78.0,69.8,29.99,SW,223,9.0,9.0,76,0.00,BKN,,0.00,694.0,WeatherDisplay:10.37,2013-08-24 09:07:00,
2013-08-24 11:12:00,77.9,69.7,29.99,SW,217,10.4,10.4,76,0.00,BKN,,0.00,693.0,WeatherDisplay:10.37,2013-08-24 09:12:00,
2013-08-24 11:17:00,78.0,69.8,29.99,WSW,252,15.0,15.0,76,0.00,BKN,,0.00,722.0,WeatherDisplay:10.37,2013-08-24 09:17:00,
2013-08-24 11:22:00,78.3,70.1,29.99,West,280,10.4,10.4,76,0.00,BKN,,0.00,721.0,WeatherDisplay:10.37,2013-08-24 09:22:00,
2013-08-24 11:27:00,78.7,69.7,29.99,WSW,240,10.4,10.4,74,0.00,BKN,,0.00,729.0,WeatherDisplay:10.37,2013-08-24 09:27:00,
2013-08-24 11:32:00,79.2,70.2,29.99,West,264,9.2,9.2,74,0.00,BKN,,0.00,735.0,WeatherDisplay:10.37,2013-08-24 09:32:00,
2013-08-24 11:37:00,79.2,69.8,29.99,SW,227,13.8,13.8,73,0.00,SCT,,0.00,738.0,WeatherDisplay:10.37,2013-08-24 09:37:00,
2013-08-24 11:42:00,79.2,70.2,29.99,ENE,75,6.9,6.9,74,0.00,SCT,,0.00,751.0,WeatherDisplay:10.37,2013-08-24 09:42:00,
2013-08-24 11:47:00,79.1,70.1,29.99,SW,225,10.0,10.0,74,0.00,SCT,,0.00,749.0,WeatherDisplay:10.37,2013-08-24 09:47:00,
2013-08-24 11:52:00,79.2,70.2,29.99,SW,223,15.0,15.0,74,0.00,SCT,,0.00,761.0,WeatherDisplay:10.37,2013-08-24 09:52:00,
2013-08-24 11:57:00,79.5,70.5,29.99,SW,232,11.0,11.0,74,0.00,SCT,,0.00,759.0,WeatherDisplay:10.37,2013-08-24 09:57:00,
2013-08-24 12:02:00,78.9,69.9,29.99,WSW,258,13.8,13.8,74,0.00,SCT,,0.00,761.0,WeatherDisplay:10.37,2013-08-24 10:02:00,
2013-08-24 12:07:00,79.1,70.1,29.99,SSW,207,8.1,8.1,74,0.00,SCT,,0.00,768.0,WeatherDisplay:10.37,2013-08-24 10:07:00,
2013-08-24 12:12:00,79.3,70.3,29.99,SW,234,13.8,13.8,74,0.00,SCT,,0.00,772.0,WeatherDisplay:10.37,2013-08-24 10:12:00,
2013-08-24 12:17:00,79.1,70.1,29.99,West,281,15.0,15.0,74,0.00,FEW,,0.00,779.0,WeatherDisplay:10.37,2013-08-24 10:17:00,
2013-08-24 12:22:00,79.7,70.3,29.99,NW,309,12.7,12.7,73,0.00,FEW,,0.00,775.0,WeatherDisplay:10.37,2013-08-24 10:22:00,
2013-08-24 12:27:00,79.8,70.0,29.99,WSW,240,11.5,11.5,72,0.00,FEW,,0.00,789.0,WeatherDisplay:10.37,2013-08-24 10:27:00,
2013-08-24 12:32:00,79.8,70.0,29.99,West,270,11.5,11.5,72,0.00,FEW,,0.00,786.0,WeatherDisplay:10.37,2013-08-24 10:32:00,
2013-08-24 12:37:00,79.1,69.7,29.99,WSW,256,12.7,12.7,73,0.00,SCT,,0.00,786.0,WeatherDisplay:10.37,2013-08-24 10:37:00,
2013-08-24 12:42:00,79.3,69.9,29.98,SW,227,12.7,12.7,73,0.00,SCT,,0.00,782.0,WeatherDisplay:10.37,2013-08-24 10:42:00,
2013-08-24 12:47:00,79.4,70.0,29.98,West,275,12.7,12.7,73,0.00,SCT,,0.00,791.0,WeatherDisplay:10.37,2013-08-24 10:47:00,
2013-08-24 12:52:00,79.7,70.3,29.98,West,259,12.0,12.0,73,0.00,SCT,,0.00,796.0,WeatherDisplay:10.37,2013-08-24 10:52:00,
2013-08-24 12:57:00,80.1,70.7,29.98,WSW,249,15.0,15.0,73,0.00,SCT,,0.00,788.0,WeatherDisplay:10.37,2013-08-24 10:57:00,
2013-08-24 13:02:00,80.1,70.3,29.98,SW,228,15.0,15.0,72,0.00,SCT,,0.00,789.0,WeatherDisplay:10.37,2013-08-24 11:02:00,
2013-08-24 13:07:00,79.6,70.2,29.98,South,189,12.7,12.7,73,0.00,SCT,,0.00,793.0,WeatherDisplay:10.37,2013-08-24 11:07:00,
2013-08-24 13:12:00,79.5,70.1,29.98,WSW,251,11.5,11.5,73,0.00,SCT,,0.00,788.0,WeatherDisplay:10.37,2013-08-24 11:12:00,
2013-08-24 13:17:00,79.8,70.4,29.98,WSW,238,15.0,15.0,73,0.00,SCT,,0.00,793.0,WeatherDisplay:10.37,2013-08-24 11:17:00,
2013-08-24 13:22:00,80.3,71.3,29.98,WNW,286,6.9,6.9,74,0.00,SCT,,0.00,784.0,WeatherDisplay:10.37,2013-08-24 11:22:00,
2013-08-24 13:27:00,79.6,70.2,29.98,West,267,13.0,13.0,73,0.00,SCT,,0.00,793.0,WeatherDisplay:10.37,2013-08-24 11:27:00,
2013-08-24 13:32:00,79.5,70.1,29.97,WSW,251,16.1,16.1,73,0.00,SCT,,0.00,786.0,WeatherDisplay:10.37,2013-08-24 11:32:00,
2013-08-24 13:37:00,80.2,71.2,29.97,WSW,239,11.5,11.5,74,0.00,FEW,,0.00,786.0,WeatherDisplay:10.37,2013-08-24 11:37:00,
2013-08-24 13:42:00,79.2,70.2,29.97,ENE,67,13.8,13.8,74,0.00,FEW,,0.00,786.0,WeatherDisplay:10.37,2013-08-24 11:42:00,
2013-08-24 13:47:00,79.8,71.2,29.97,WSW,242,10.0,10.0,75,0.00,FEW,,0.00,780.0,WeatherDisplay:10.37,2013-08-24 11:47:00,
2013-08-24 13:52:00,79.7,70.7,29.97,SW,234,10.4,10.4,74,0.00,FEW,,0.00,775.0,WeatherDisplay:10.37,2013-08-24 11:52:00,
2013-08-24 13:58:00,79.8,70.8,29.97,SSW,203,12.7,12.7,74,0.00,FEW,,0.00,775.0,WeatherDisplay:10.37,2013-08-24 11:58:00,
2013-08-24 14:03:00,80.0,70.6,29.97,SE,145,11.5,11.5,73,0.00,FEW,,0.00,773.0,WeatherDisplay:10.37,2013-08-24 12:03:00,
2013-08-24 14:08:00,80.0,70.6,29.97,WSW,243,11.5,11.5,73,0.00,FEW,,0.00,759.0,WeatherDisplay:10.37,2013-08-24 12:08:00,
2013-08-24 14:13:00,80.7,71.2,29.97,West,263,11.0,11.0,73,0.00,FEW,,0.00,756.0,WeatherDisplay:10.37,2013-08-24 12:13:00,
2013-08-24 14:18:00,79.7,70.3,29.97,West,278,15.0,15.0,73,0.00,FEW,,0.00,752.0,WeatherDisplay:10.37,2013-08-24 12:18:00,
2013-08-24 14:23:00,80.1,70.7,29.97,West,259,17.3,17.3,73,0.00,FEW,,0.00,749.0,WeatherDisplay:10.37,2013-08-24 12:23:00,
2013-08-24 14:28:00,80.0,70.2,29.97,SW,221,13.8,13.8,72,0.00,FEW,,0.00,744.0,WeatherDisplay:10.37,2013-08-24 12:28:00,
2013-08-24 14:33:00,79.6,70.2,29.97,SW,234,15.0,15.0,73,0.00,FEW,,0.00,737.0,WeatherDisplay:10.37,2013-08-24 12:33:00,
2013-08-24 14:38:00,79.7,70.7,29.96,West,259,11.5,11.5,74,0.00,FEW,,0.00,733.0,WeatherDisplay:10.37,2013-08-24 12:38:00,
2013-08-24 14:43:00,79.9,70.1,29.97,WSW,245,13.0,13.0,72,0.00,FEW,,0.00,722.0,WeatherDisplay:10.37,2013-08-24 12:43:00,
2013-08-24 14:48:00,79.3,69.5,29.97,SW,230,13.8,13.8,72,0.00,FEW,,0.00,714.0,WeatherDisplay:10.37,2013-08-24 12:48:00,
2013-08-24 14:53:00,79.6,69.4,29.96,NNE,31,15.0,15.0,71,0.00,FEW,,0.00,705.0,WeatherDisplay:10.37,2013-08-24 12:53:00,
2013-08-24 14:58:00,80.2,69.9,29.96,WSW,255,15.0,15.0,71,0.00,FEW,,0.00,698.0,WeatherDisplay:10.37,2013-08-24 12:58:00,
2013-08-24 15:03:00,80.5,69.4,29.96,WNW,282,12.7,12.7,69,0.00,FEW,,0.00,687.0,WeatherDisplay:10.37,2013-08-24 13:03:00,
2013-08-24 15:08:00,80.2,70.4,29.96,South,191,11.5,11.5,72,0.00,FEW,,0.00,679.0,WeatherDisplay:10.37,2013-08-24 13:08:00,
2013-08-24 15:13:00,80.8,69.2,29.96,SSW,196,10.4,10.4,68,0.00,FEW,,0.00,671.0,WeatherDisplay:10.37,2013-08-24 13:13:00,
2013-08-24 15:18:00,80.5,68.5,29.96,West,267,15.0,15.0,67,0.00,FEW,,0.00,664.0,WeatherDisplay:10.37,2013-08-24 13:18:00,
2013-08-24 15:23:00,80.6,67.3,29.96,West,276,15.0,15.0,64,0.00,FEW,,0.00,652.0,WeatherDisplay:10.37,2013-08-24 13:23:00,
2013-08-24 15:28:00,80.9,68.5,29.95,WNW,286,12.7,12.7,66,0.00,FEW,,0.00,643.0,WeatherDisplay:10.37,2013-08-24 13:28:00,
2013-08-24 15:33:00,81.2,68.3,29.95,SSW,207,12.7,12.7,65,0.00,FEW,,0.00,631.0,WeatherDisplay:10.37,2013-08-24 13:33:00,
2013-08-24 15:38:00,81.5,68.6,29.95,WNW,286,11.5,11.5,65,0.00,FEW,,0.00,622.0,WeatherDisplay:10.37,2013-08-24 13:38:00,
2013-08-24 15:43:00,80.9,67.6,29.95,WSW,246,15.0,15.0,64,0.00,FEW,,0.00,612.0,WeatherDisplay:10.37,2013-08-24 13:43:00,
2013-08-24 15:48:00,80.0,65.3,29.95,SSW,211,11.5,11.5,61,0.00,FEW,,0.00,601.0,WeatherDisplay:10.37,2013-08-24 13:48:00,
2013-08-24 15:53:00,80.3,67.9,29.95,West,261,16.1,16.1,66,0.00,FEW,,0.00,589.0,WeatherDisplay:10.37,2013-08-24 13:53:00,
2013-08-24 15:58:00,80.6,67.3,29.95,SSW,209,12.7,12.7,64,0.00,FEW,,0.00,578.0,WeatherDisplay:10.37,2013-08-24 13:58:00,
2013-08-24 16:03:00,80.8,67.5,29.95,West,269,12.7,12.7,64,0.00,FEW,,0.00,566.0,WeatherDisplay:10.37,2013-08-24 14:03:00,
2013-08-24 16:08:00,80.8,67.9,29.95,West,269,11.5,11.5,65,0.00,FEW,,0.00,554.0,WeatherDisplay:10.37,2013-08-24 14:08:00,
2013-08-24 16:13:00,81.0,68.6,29.94,SW,234,13.8,13.8,66,0.00,FEW,,0.00,540.0,WeatherDisplay:10.37,2013-08-24 14:13:00,
2013-08-24 16:18:00,80.9,67.1,29.94,WSW,254,15.0,15.0,63,0.00,FEW,,0.00,531.0,WeatherDisplay:10.37,2013-08-24 14:18:00,
2013-08-24 16:23:00,80.4,68.9,29.94,West,269,17.0,17.0,68,0.00,FEW,,0.00,517.0,WeatherDisplay:10.37,2013-08-24 14:23:00,
2013-08-24 16:28:00,80.1,68.2,29.94,West,267,15.0,15.0,67,0.00,FEW,,0.00,503.0,WeatherDisplay:10.37,2013-08-24 14:28:00,
2013-08-24 16:33:00,80.5,68.1,29.94,West,276,13.8,13.8,66,0.00,FEW,,0.00,492.0,WeatherDisplay:10.37,2013-08-24 14:33:00,
2013-08-24 16:38:00,80.6,69.1,29.94,WSW,246,15.0,15.0,68,0.00,FEW,,0.00,482.0,WeatherDisplay:10.37,2013-08-24 14:38:00,
2013-08-24 16:43:00,80.9,68.9,29.94,WSW,257,11.5,11.5,67,0.00,FEW,,0.00,466.0,WeatherDisplay:10.37,2013-08-24 14:43:00,
2013-08-24 16:48:00,80.6,68.6,29.94,SSW,209,15.0,15.0,67,0.00,FEW,,0.00,454.0,WeatherDisplay:10.37,2013-08-24 14:48:00,
2013-08-24 16:53:00,80.8,68.4,29.94,West,277,11.5,11.5,66,0.00,FEW,,0.00,438.0,WeatherDisplay:10.37,2013-08-24 14:53:00,
2013-08-24 16:58:00,80.3,69.2,29.94,WSW,240,15.0,15.0,69,0.00,FEW,,0.00,427.0,WeatherDisplay:10.37,2013-08-24 14:58:00,
2013-08-24 17:03:00,80.8,68.8,29.94,WSW,258,13.0,13.0,67,0.00,FEW,,0.00,413.0,WeatherDisplay:10.37,2013-08-24 15:03:00,
2013-08-24 17:08:00,80.4,68.4,29.93,West,267,15.0,15.0,67,0.00,FEW,,0.00,399.0,WeatherDisplay:10.37,2013-08-24 15:08:00,
2013-08-24 17:13:00,80.5,69.0,29.93,ESE,112,13.8,13.8,68,0.00,FEW,,0.00,385.0,WeatherDisplay:10.37,2013-08-24 15:13:00,
2013-08-24 17:18:00,80.5,68.1,29.93,WSW,257,13.8,13.8,66,0.00,FEW,,0.00,371.0,WeatherDisplay:10.37,2013-08-24 15:18:00,
2013-08-24 17:23:00,80.3,68.3,29.93,WSW,237,13.8,13.8,67,0.00,FEW,,0.00,357.0,WeatherDisplay:10.37,2013-08-24 15:23:00,
2013-08-24 17:28:00,80.1,68.6,29.93,SW,234,13.8,13.8,68,0.00,FEW,,0.00,341.0,WeatherDisplay:10.37,2013-08-24 15:28:00,
2013-08-24 17:33:00,80.5,69.0,29.93,West,261,15.0,15.0,68,0.00,CLR,,0.00,327.0,WeatherDisplay:10.37,2013-08-24 15:33:00,
2013-08-24 17:38:00,80.5,69.0,29.93,West,275,12.7,12.7,68,0.00,CLR,,0.00,313.0,WeatherDisplay:10.37,2013-08-24 15:38:00,
2013-08-24 17:43:00,80.6,68.6,29.92,WNW,290,11.5,11.5,67,0.00,CLR,,0.00,301.0,WeatherDisplay:10.37,2013-08-24 15:43:00,
2013-08-24 17:48:00,80.1,68.6,29.92,West,274,15.0,15.0,68,0.00,CLR,,0.00,287.0,WeatherDisplay:10.37,2013-08-24 15:48:00,
2013-08-24 17:53:00,79.9,68.0,29.92,West,279,16.0,16.0,67,0.00,CLR,,0.00,269.0,WeatherDisplay:10.37,2013-08-24 15:53:00,
2013-08-24 17:58:00,79.9,68.0,29.92,WSW,245,16.0,16.0,67,0.00,CLR,,0.00,257.0,WeatherDisplay:10.37,2013-08-24 15:58:00,
2013-08-24 18:03:00,79.6,67.7,29.92,West,277,15.0,15.0,67,0.00,CLR,,0.00,241.0,WeatherDisplay:10.37,2013-08-24 16:03:00,
2013-08-24 18:08:00,79.7,67.8,29.92,WSW,251,16.1,16.1,67,0.00,CLR,,0.00,225.0,WeatherDisplay:10.37,2013-08-24 16:08:00,
2013-08-24 18:13:00,79.8,68.3,29.92,WSW,257,9.2,9.2,68,0.00,CLR,,0.00,209.0,WeatherDisplay:10.37,2013-08-24 16:13:00,
2013-08-24 18:18:00,79.9,68.0,29.92,West,272,12.7,12.7,67,0.00,CLR,,0.00,197.0,WeatherDisplay:10.37,2013-08-24 16:18:00,
2013-08-24 18:23:00,79.4,67.9,29.92,WSW,247,10.4,10.4,68,0.00,CLR,,0.00,183.0,WeatherDisplay:10.37,2013-08-24 16:23:00,
2013-08-24 18:28:00,79.5,67.6,29.92,WNW,283,13.8,13.8,67,0.00,CLR,,0.00,169.0,WeatherDisplay:10.37,2013-08-24 16:28:00,
2013-08-24 18:33:00,79.2,68.1,29.92,West,260,13.8,13.8,69,0.00,CLR,,0.00,155.0,WeatherDisplay:10.37,2013-08-24 16:33:00,
2013-08-24 18:38:00,79.5,68.4,29.92,WSW,250,9.2,9.2,69,0.00,FEW,,0.00,139.0,WeatherDisplay:10.37,2013-08-24 16:38:00,
2013-08-24 18:43:00,79.3,68.2,29.92,WSW,258,10.4,10.4,69,0.00,FEW,,0.00,123.0,WeatherDisplay:10.37,2013-08-24 16:43:00,
2013-08-24 18:48:00,79.5,68.4,29.92,ENE,74,8.1,8.1,69,0.00,FEW,,0.00,111.0,WeatherDisplay:10.37,2013-08-24 16:48:00,
2013-08-24 18:53:00,79.4,67.9,29.92,West,267,8.1,8.1,68,0.00,FEW,,0.00,97.0,WeatherDisplay:10.37,2013-08-24 16:53:00,
2013-08-24 18:58:00,79.4,68.3,29.92,SSW,198,8.1,8.1,69,0.00,FEW,,0.00,83.0,WeatherDisplay:10.37,2013-08-24 16:58:00,
2013-08-24 19:03:00,79.3,68.2,29.92,WSW,256,10.4,10.4,69,0.00,SCT,,0.00,69.0,WeatherDisplay:10.37,2013-08-24 17:03:00,
2013-08-24 19:08:00,79.3,67.4,29.92,WSW,239,9.0,9.0,67,0.00,SCT,,0.00,58.0,WeatherDisplay:10.37,2013-08-24 17:08:00,
2013-08-24 19:13:00,79.0,68.0,29.92,West,273,10.4,10.4,69,0.00,SCT,,0.00,46.0,WeatherDisplay:10.37,2013-08-24 17:13:00,
2013-08-24 19:18:00,78.8,68.2,29.92,West,267,10.4,10.4,70,0.00,SCT,,0.00,35.0,WeatherDisplay:10.37,2013-08-24 17:18:00,
2013-08-24 19:23:00,78.7,68.5,29.92,WSW,256,11.5,11.5,71,0.00,SCT,,0.00,26.0,WeatherDisplay:10.37,2013-08-24 17:23:00,
2013-08-24 19:28:00,78.7,68.1,29.92,West,264,10.4,10.4,70,0.00,BKN,,0.00,19.0,WeatherDisplay:10.37,2013-08-24 17:28:00,
2013-08-24 19:33:00,78.6,68.4,29.92,West,259,8.1,8.1,71,0.00,BKN,,0.00,12.0,WeatherDisplay:10.37,2013-08-24 17:33:00,
2013-08-24 19:38:00,78.4,68.2,29.91,West,277,9.2,9.2,71,0.00,BKN,,0.00,9.0,WeatherDisplay:10.37,2013-08-24 17:38:00,
2013-08-24 19:43:00,78.4,68.2,29.92,WSW,238,8.0,8.0,71,0.00,BKN,,0.00,5.0,WeatherDisplay:10.37,2013-08-24 17:43:00,
2013-08-24 19:49:00,78.3,68.1,29.92,West,275,8.1,8.1,71,0.00,,,0.00,0.0,WeatherDisplay:10.37,2013-08-24 17:49:00,
2013-08-24 19:54:00,78.3,68.1,29.91,West,270,5.8,5.8,71,0.00,,,0.00,0.0,WeatherDisplay:10.37,2013-08-24 17:54:00,
2013-08-24 19:59:00,78.3,68.1,29.92,WSW,256,3.5,3.5,71,0.00,,,0.00,0.0,WeatherDisplay:10.37,2013-08-24 17:59:00,
2013-08-24 20:04:00,78.2,68.0,29.92,WSW,242,8.1,8.1,71,0.00,,,0.00,0.0,WeatherDisplay:10.37,2013-08-24 18:04:00,
2013-08-24 20:09:00,78.2,68.0,29.92,WSW,255,5.8,5.8,71,0.00,,,0.00,0.0,WeatherDisplay:10.37,2013-08-24 18:09:00,
2013-08-24 20:14:00,78.2,68.4,29.92,West,280,5.0,5.0,72,0.00,,,0.00,0.0,WeatherDisplay:10.37,2013-08-24 18:14:00,
2013-08-24 20:19:00,78.2,68.4,29.92,West,279,7.0,7.0,72,0.00,,,0.00,0.0,WeatherDisplay:10.37,2013-08-24 18:19:00,
2013-08-24 20:24:00,78.0,68.2,29.92,West,260,6.9,6.9,72,0.00,,,0.00,0.0,WeatherDisplay:10.37,2013-08-24 18:24:00,
2013-08-24 20:29:00,78.0,68.2,29.92,West,263,8.1,8.1,72,0.00,,,0.00,0.0,WeatherDisplay:10.37,2013-08-24 18:29:00,
2013-08-24 20:34:00,78.0,68.6,29.92,West,273,5.8,5.8,73,0.00,,,0.00,0.0,WeatherDisplay:10.37,2013-08-24 18:34:00,
2013-08-24 20:39:00,78.0,69.0,29.92,West,273,6.9,6.9,74,0.00,,,0.00,0.0,WeatherDisplay:10.37,2013-08-24 18:39:00,
2013-08-24 20:44:00,77.9,68.9,29.92,WSW,252,5.0,5.0,74,0.00,,,0.00,0.0,WeatherDisplay:10.37,2013-08-24 18:44:00,
2013-08-24 20:49:00,77.8,68.8,29.92,WNW,288,4.6,4.6,74,0.00,,,0.00,0.0,WeatherDisplay:10.37,2013-08-24 18:49:00,
2013-08-24 20:54:00,77.8,68.8,29.92,NW,309,3.5,3.5,74,0.00,,,0.00,0.0,WeatherDisplay:10.37,2013-08-24 18:54:00,
2013-08-24 20:59:00,77.4,68.1,29.92,WNW,293,2.3,2.3,73,0.00,,,0.00,0.0,WeatherDisplay:10.37,2013-08-24 18:59:00,
2013-08-24 21:04:00,77.1,68.2,29.92,NW,318,3.5,3.5,74,0.00,,,0.00,0.0,WeatherDisplay:10.37,2013-08-24 19:04:00,
2013-08-24 21:09:00,77.0,68.1,29.93,NNW,331,3.5,3.5,74,0.00,,,0.00,0.0,WeatherDisplay:10.37,2013-08-24 19:09:00,
2013-08-24 21:14:00,77.1,68.6,29.92,WNW,290,3.5,3.5,75,0.00,,,0.00,0.0,WeatherDisplay:10.37,2013-08-24 19:14:00,
2013-08-24 21:19:00,77.1,68.6,29.93,NNW,332,3.5,3.5,75,0.00,,,0.00,0.0,WeatherDisplay:10.37,2013-08-24 19:19:00,
2013-08-24 21:24:00,77.1,68.6,29.92,NW,304,3.5,3.5,75,0.00,,,0.00,0.0,WeatherDisplay:10.37,2013-08-24 19:24:00,
2013-08-24 21:29:00,76.9,68.0,29.93,NW,311,1.2,1.2,74,0.00,,,0.00,0.0,WeatherDisplay:10.37,2013-08-24 19:29:00,
2013-08-24 21:34:00,76.7,68.2,29.93,NW,325,4.0,4.0,75,0.00,,,0.00,0.0,WeatherDisplay:10.37,2013-08-24 19:34:00,
2013-08-24 21:39:00,76.6,68.1,29.93,NW,304,3.5,3.5,75,0.00,,,0.00,0.0,WeatherDisplay:10.37,2013-08-24 19:39:00,
2013-08-24 21:44:00,76.6,68.1,29.93,NW,313,3.5,3.5,75,0.00,,,0.00,0.0,WeatherDisplay:10.37,2013-08-24 19:44:00,
2013-08-24 21:49:00,76.6,68.5,29.93,NNW,341,2.3,2.3,76,0.00,,,0.00,0.0,WeatherDisplay:10.37,2013-08-24 19:49:00,
2013-08-24 21:54:00,76.6,68.5,29.93,NNW,333,3.5,3.5,76,0.00,,,0.00,0.0,WeatherDisplay:10.37,2013-08-24 19:54:00,
2013-08-24 21:59:00,76.6,68.5,29.93,WNW,302,3.5,3.5,76,0.00,,,0.00,0.0,WeatherDisplay:10.37,2013-08-24 19:59:00,
2013-08-24 22:04:00,76.7,68.6,29.93,NW,319,4.0,4.0,76,0.00,,,0.00,0.0,WeatherDisplay:10.37,2013-08-24 20:04:00,
2013-08-24 22:09:00,76.7,68.6,29.93,NW,320,4.6,4.6,76,0.00,,,0.00,0.0,WeatherDisplay:10.37,2013-08-24 20:09:00,
2013-08-24 22:14:00,76.8,68.7,29.93,NW,321,4.0,4.0,76,0.00,,,0.00,0.0,WeatherDisplay:10.37,2013-08-24 20:14:00,
2013-08-24 22:19:00,76.7,68.6,29.93,NW,315,3.5,3.5,76,0.00,,,0.00,0.0,WeatherDisplay:10.37,2013-08-24 20:19:00,
2013-08-24 22:24:00,76.6,68.5,29.93,WNW,293,3.5,3.5,76,0.00,,,0.00,0.0,WeatherDisplay:10.37,2013-08-24 20:24:00,
2013-08-24 22:29:00,76.6,68.5,29.93,NW,318,3.5,3.5,76,0.00,,,0.00,0.0,WeatherDisplay:10.37,2013-08-24 20:29:00,
2013-08-24 22:34:00,76.6,68.5,29.93,NNW,347,2.3,2.3,76,0.00,,,0.00,0.0,WeatherDisplay:10.37,2013-08-24 20:34:00,
2013-08-24 22:39:00,76.5,68.4,29.93,NNW,345,0.0,0.0,76,0.00,,,0.00,0.0,WeatherDisplay:10.37,2013-08-24 20:39:00,
2013-08-24 22:44:00,76.4,68.3,29.93,NNW,345,0.0,0.0,76,0.00,,,0.00,0.0,WeatherDisplay:10.37,2013-08-24 20:44:00,
2013-08-24 22:49:00,76.4,68.7,29.93,WNW,284,0.0,0.0,77,0.00,,,0.00,0.0,WeatherDisplay:10.37,2013-08-24 20:49:00,
2013-08-24 22:54:00,76.3,68.6,29.93,WNW,284,0.0,0.0,77,0.00,,,0.00,0.0,WeatherDisplay:10.37,2013-08-24 20:54:00,
2013-08-24 22:59:00,76.2,68.5,29.93,WNW,284,0.0,0.0,77,0.00,,,0.00,0.0,WeatherDisplay:10.37,2013-08-24 20:59:00,
2013-08-24 23:04:00,75.8,67.7,29.93,SE,138,2.3,0.0,76,0.00,,,0.00,0.0,WeatherDisplay:10.37,2013-08-24 21:04:00,
2013-08-24 23:09:00,75.5,67.8,29.93,East,100,3.5,3.5,77,0.00,,,0.00,0.0,WeatherDisplay:10.37,2013-08-24 21:09:00,
2013-08-24 23:14:00,75.3,68.0,29.93,NNE,24,0.0,0.0,78,0.00,,,0.00,0.0,WeatherDisplay:10.37,2013-08-24 21:14:00,
2013-08-24 23:19:00,75.1,67.8,29.93,SSW,196,1.2,0.0,78,0.00,,,0.00,0.0,WeatherDisplay:10.37,2013-08-24 21:19:00,
2013-08-24 23:24:00,75.1,67.8,29.93,North,355,0.0,0.0,78,0.00,,,0.00,0.0,WeatherDisplay:10.37,2013-08-24 21:24:00,
2013-08-24 23:29:00,75.0,68.0,29.93,SW,225,1.2,1.2,79,0.00,,,0.00,0.0,WeatherDisplay:10.37,2013-08-24 21:29:00,
2013-08-24 23:34:00,75.1,68.1,29.93,SW,225,0.0,0.0,79,0.00,,,0.00,0.0,WeatherDisplay:10.37,2013-08-24 21:34:00,
2013-08-24 23:39:00,75.2,68.2,29.93,SW,225,0.0,0.0,79,0.00,,,0.00,0.0,WeatherDisplay:10.37,2013-08-24 21:39:00,
2013-08-24 23:44:00,75.2,68.2,29.93,SW,225,0.0,0.0,79,0.00,,,0.00,0.0,WeatherDisplay:10.37,2013-08-24 21:44:00,
2013-08-24 23:49:00,75.1,67.8,29.93,NE,53,0.0,0.0,78,0.00,,,0.00,0.0,WeatherDisplay:10.37,2013-08-24 21:49:00,
2013-08-24 23:54:00,75.0,67.7,29.93,North,360,0.0,0.0,78,0.00,,,0.00,0.0,WeatherDisplay:10.37,2013-08-24 21:54:00,
2013-08-24 23:59:00,74.9,67.9,29.93,North,351,0.0,0.0,79,0.00,,,0.00,0.0,WeatherDisplay:10.37,2013-08-24 21:59:00,